SCP
0 0 0 0 0 0 0 0 0 0 0 0 0 0 0 0 0 0 0 0 0 0 0 0 0 -0 0 0 0 0 0 0 0 0 0 0 0 0 0 0 0 0 0
0 0 0 -0 0 0 0 0 0 0 0 0 0 0 0 0 0 0 0 0 0 0 0 -0 -0 0 0 0 0 0 0 0 0 0 0 0 0 0 0 0 0 0 0
0 0 0 0 0 0 0 0 -0 0 0 -0 -0 -0 0 0 0 0 0 0 0 0 0 0 0 0 -0 0 0 0 0 0 0 -0 -0 0 0 0 0 0 0 0 0
0 0 0 0 0 0 -0 -0 0 -0 0 -0 -0 -0 -0 0 0 0 0 0 0 0 0 0 0 -0 0 0 0 0 0 0 -0 -0 0 0 0 0 0 0 0 0 0
0 0 0 0 0 -0 0 0 0 -0 -0 0 -0 -0 -0 0 0 0 0 -0 -0 -0 0 0 -0 -0 -0 0 0 0 -0 -0 -0 0 0 0 0 0 0 0 0 0 0
0 -0 0 0 -0 -0 -0 0 0 -0 -0 -0 -0 -0 -0 0 0 -0 -0 -0 -0 -0 -0 0 0 -0 -0 -0 -0 -0 -0 -0 0 0 0 0 0 0 0 0 0 0 0
0 0 0 0 -0 -0 -0 -0 -0 0 -0 -0 0 -0 -0 0 0 -0 -0 0 0 0 0 0 -0 -0 -0 -0 -0 -0 -0 -0 -0 0 0 0 0 0 0 0 0 0 0
0 0 0 0 -0 -0 -0 -0 -0 0 0 -0 0 0 -0 -0 -0 -0 -0 -0 -0 -0 0 0 -0 -0 -0 -0 -0 -0 -0 -0 0 0 0 0 0 0 0 0 0 0 0
0 0 0 0 0 -0 0 0 0 -0 -0 -0 -0 -0 -0 -0 -0 -0 -0 -0 0 0 0 -0 -0 -0 -0 -0 -0 -0 -0 -0 -0 -0 -0 -0 -0 0 0 0 0 0 0
0 0 0 0 0 0 -0 -0 -0 0 0 0 -0 -0 -0 -0 -0 -0 -0 0 0 0 0 -0 -0 -0 -0 -0 -0 -0 -0 0 0 0 0 0 0 0 0 0 0 0 0
0 0 0 0 0 0 0 0 0 -0 -0 -0 -0 -0 -0 0 -0 -0 -0 0 0 0 0 -0 -0 -0 -0 -0 -0 -0 -0 -0 -0 0 0 0 0 0 0 0 0 0 0
0 0 0 0 0 0 0 0 0 0 0 0 -0 -0 -0 -0 -0 -0 -0 -0 -0 -0 0 0 -0 -0 -0 -0 -0 -0 -0 -0 0 0 0 0 0 0 0 0 0 0 0
0 0 0 0 0 0 0 0 0 0 0 0 0 0 0 0 -0 -0 -0 -0 -0 -0 -0 -0 -0 -0 -0 -0 -0 -0 0 0 0 0 0 0 0 0 0 0 0 0 0
0 0 0 0 0 0 0 0 0 0 0 0 0 0 0 0 0 0 0 -0 -0 -0 -0 0 -0 -0 -0 0 0 0 0 0 0 0 0 0 0 0 0 -0 0 0 0
0 0 0 0 0 0 0 0 0 0 0 0 0 0 0 0 0 0 0 0 0 0 0 0 0 0 0 0 0 0 0 0 0 0 0 0 0 0 0 0 0 0 0
0 0 0 0 0 0 0 0 0 0 0 0 0 0 0 0 -0 0 -0 -0 -0 -0 0 0 0 0 0 0 0 0 0 0 0 0 0 0 0 0 0 0 0 0 0
0 0 0 0 0 0 0 0 0 0 0 0 0 0 0 -0 -0 -0 -0 -0 0 0 0 0 0 0 0 0 0 0 0 0 0 0 0 0 0 0 0 0 0 0 0
0 0 0 0 0 0 0 0 0 0 0 0 0 0 0 0 0 -0 -0 0 0 0 0 0 0 0 0 0 0 0 0 0 0 0 0 0 0 0 0 0 0 0 0
0 0 0 0 0 0 0 0 0 0 0 0 0 0 0 0 0 0 0 0 0 0 0 0 0 0 0 0 0 0 0 0 0 0 0 0 0 0 0 0 0 0 0
0 0 0 0 0 0 0 0 0 0 0 0 0 0 0 0 0 0 0 0 0 0 0 0 0 0 0 0 0 0 0 0 0 0 0 0 0 0 0 0 0 0 0
0 0 0 0 0 0 0 0 0 0 0 0 0 0 0 0 0 0 0 0 0 0 0 0 0 0 0 0 0 0 0 0 0 0 0 0 0 0 0 0 0 0 0
0 0 0 0 0 0 0 0 0 0 0 0 0 0 0 0 0 0 0 0 0 0 0 0 0 0 0 0 0 0 0 0 0 0 0 0 0 0 0 0 0 0 0
0 0 0 0 0 0 0 0 0 0 0 0 0 0 0 0 0 0 0 0 0 0 0 0 0 0 0 0 0 0 0 0 0 0 0 0 0 0 0 0 0 0 0
0 0 0 0 0 0 0 0 0 0 0 0 0 0 0 0 0 0 0 0 0 0 0 0 0 0 0 0 0 0 0 0 0 0 0 0 0 0 0 0 0 0 0
0 0 0 0 0 0 0 0 0 0 0 0 0 0 0 0 0 0 0 0 0 0 0 0 0 0 0 0 0 0 0 0 0 0 0 0 0 0 0 0 0 0 0
0 0 0 0 0 0 0 0 0 0 0 0 0 0 0 0 0 0 0 0 0 0 0 0 0 0 0 0 0 0 0 0 0 0 0 0 0 0 0 0 0 0 0
Wind_Speed_500mb
11 12 13 12 6 6 6 6 5 5 6 7 8 4 9 19 11 9 15 16 20 23 36 31 26 45 40 30 30 31 45 28 14 23 29 24 23 21 19 15 13 12 12
13 16 16 15 10 8 5 5 3 5 8 9 8 8 10 21 17 22 20 31 38 40 33 36 47 47 36 20 17 21 25 23 11 12 26 26 19 19 16 14 14 14 14
15 19 20 17 13 10 6 5 3 3 5 9 10 14 30 26 19 21 25 33 29 28 39 39 38 33 33 24 24 30 23 12 9 7 14 22 18 16 11 11 12 12 10
17 23 23 18 15 6 6 8 9 11 13 19 23 30 31 24 20 26 30 31 32 34 35 26 29 27 21 27 33 26 17 8 8 7 11 16 15 11 9 7 7 10 14
22 27 24 17 8 6 11 10 15 22 29 29 32 31 26 20 22 27 33 36 47 39 25 26 23 28 19 23 19 21 17 9 19 11 13 17 16 10 7 2 1 6 10
28 31 25 19 17 17 18 18 27 35 36 35 34 28 23 26 28 29 29 36 44 36 31 31 23 20 15 19 10 16 17 19 16 12 13 13 13 10 7 3 3 5 9
35 36 30 27 22 23 23 31 26 31 32 31 29 22 24 22 28 24 27 32 34 30 27 30 28 21 22 18 13 24 26 19 12 8 6 11 9 7 2 1 3 4 7
40 41 36 36 26 28 30 37 28 29 28 25 19 19 19 23 22 26 23 29 32 28 24 27 29 26 19 17 21 27 22 19 15 8 8 9 8 5 2 3 3 4 7
47 46 43 39 33 32 37 34 29 28 25 25 20 20 26 28 29 27 32 33 32 33 33 30 32 25 26 26 24 21 20 13 10 9 6 5 6 6 5 5 4 5 5
54 49 48 45 38 40 38 34 25 27 31 30 30 32 33 32 34 29 28 33 39 44 41 40 35 36 34 28 18 15 13 12 10 7 6 6 7 5 5 5 6 8 11
58 56 52 50 47 41 40 42 38 37 42 42 41 41 37 33 37 31 29 32 40 45 46 44 40 31 27 23 19 14 9 10 9 8 6 5 5 5 7 8 9 10 11
65 63 58 55 53 49 45 48 43 44 40 41 39 41 41 39 35 34 32 33 36 38 43 39 34 29 23 21 17 14 11 10 7 6 6 6 6 8 10 11 14 16 17
71 70 63 60 57 53 53 53 50 47 44 40 36 33 37 39 41 38 37 34 33 29 28 26 26 25 20 16 14 11 10 12 10 7 6 6 8 10 13 15 18 21 22
75 74 70 67 63 59 55 53 54 47 40 34 28 28 39 39 43 44 41 38 32 25 25 26 24 21 19 15 15 15 12 8 5 4 6 7 11 16 19 22 23 23 19
78 78 76 71 67 65 61 59 54 48 39 30 21 24 40 44 42 39 34 31 27 23 24 26 25 23 21 16 11 8 5 5 10 10 14 17 19 20 17 21 20 19 16
82 83 81 76 71 71 71 67 57 44 39 30 27 32 35 38 40 37 33 29 26 23 23 27 25 18 12 6 9 12 16 15 15 17 17 18 16 15 16 18 21 24 28
82 87 85 80 77 78 77 74 70 58 45 38 36 38 39 38 39 39 36 34 32 34 32 24 13 13 12 10 14 16 15 19 19 19 15 13 12 15 20 26 31 30 32
79 83 89 86 82 80 77 74 67 57 54 48 48 48 46 42 40 40 40 40 41 45 32 22 13 10 11 11 15 15 17 18 19 14 11 12 16 20 25 28 32 29 29
79 83 88 87 84 79 77 73 67 57 51 49 58 56 51 46 43 42 39 37 41 44 38 28 19 10 10 12 13 17 18 16 14 12 14 20 25 25 25 27 26 28 27
81 85 89 87 86 84 80 76 68 61 57 56 61 63 62 58 58 54 48 45 44 42 38 29 20 12 10 14 15 18 17 16 15 19 22 25 29 30 26 24 26 24 24
85 87 89 88 87 87 82 79 72 65 62 59 60 62 59 59 57 53 51 50 46 44 37 29 22 16 12 17 20 20 20 18 21 26 30 32 30 25 24 23 21 20 20
90 88 92 94 91 88 86 82 75 69 65 64 63 63 63 62 58 54 52 48 45 43 40 33 27 17 18 20 21 21 21 23 30 33 33 32 29 25 22 19 16 17 18
93 91 91 95 95 92 88 83 79 76 74 70 68 69 67 62 58 55 53 49 48 48 44 39 32 24 26 28 28 25 22 28 33 33 31 30 27 23 21 16 15 13 12
92 91 90 91 94 97 94 90 84 80 77 74 73 72 67 63 59 57 54 52 50 48 41 39 35 29 27 28 29 31 35 36 39 38 32 26 23 21 19 15 12 9 7
91 90 89 89 88 86 90 92 90 85 79 78 76 71 68 63 61 61 58 56 53 49 47 46 41 36 33 31 31 34 39 39 38 38 35 30 24 21 17 14 9 5 6
90 92 90 89 87 85 85 86 87 86 86 83 78 73 68 65 65 66 64 60 57 53 51 49 45 39 37 36 38 40 43 42 39 38 35 30 23 20 17 11 6 3 4
Wind_Direction_500mb
240 202 185 167 205 227 221 237 208 201 217 215 219 203 148 162 150 131 123 125 129 164 161 169 177 163 168 176 189 199 208 215 258 220 209 210 208 216 220 222 229 263 271
228 188 185 175 187 226 209 252 281 211 209 225 213 197 175 149 141 140 113 129 141 145 162 151 156 169 171 172 194 188 187 209 238 214 199 199 195 206 222 237 245 263 267
215 184 186 179 199 210 189 199 214 226 179 194 193 162 149 145 127 116 149 147 143 144 153 150 162 176 182 194 175 181 181 188 138 151 192 190 192 195 223 257 255 259 273
202 186 182 189 198 198 151 157 163 175 130 134 141 140 143 142 136 131 148 151 161 141 151 144 147 163 171 170 172 175 185 156 161 135 161 165 168 194 226 245 269 284 291
191 190 179 192 166 153 160 139 132 142 128 125 127 129 130 135 158 142 143 154 162 157 160 158 151 147 146 170 176 195 191 198 161 137 143 142 139 136 145 129 244 299 308
187 191 183 168 168 155 152 151 130 136 136 132 128 130 137 128 124 146 144 148 164 175 177 173 165 179 195 179 183 151 136 140 138 118 125 143 130 127 122 99 10 347 322
188 189 185 174 173 161 161 152 148 144 144 148 150 143 139 139 136 142 154 161 171 177 191 200 198 185 182 175 172 153 142 144 138 124 140 140 136 123 127 102 279 296 294
192 189 184 175 181 170 164 166 163 159 159 158 156 151 150 155 154 159 160 164 173 173 170 168 179 173 174 174 162 154 151 160 151 134 84 64 58 60 54 7 356 327 322
196 192 178 172 180 176 168 168 173 171 167 159 164 166 160 152 151 142 164 151 160 168 173 168 163 155 150 147 156 161 149 140 131 120 111 96 84 75 55 32 34 15 351
197 192 174 175 173 175 170 169 170 171 171 159 150 148 152 134 131 148 162 157 148 148 148 145 145 147 143 138 138 133 141 147 136 116 125 127 109 84 39 22 9 8 4
195 191 179 179 179 176 170 174 165 161 161 156 150 140 138 131 137 141 147 154 155 149 146 144 142 139 138 139 144 142 138 132 140 137 128 94 59 37 36 35 30 26 32
194 192 183 183 180 177 171 168 177 176 171 163 159 152 148 142 142 144 147 153 149 150 146 145 144 144 148 148 148 144 145 141 128 110 96 94 78 63 53 49 50 45 40
195 191 185 186 186 186 182 181 174 171 172 165 161 160 158 156 150 150 148 145 141 149 146 149 151 151 155 154 151 151 140 119 114 125 125 96 78 73 68 65 64 63 58
197 190 188 189 189 187 183 185 179 173 175 178 186 175 171 171 164 156 156 157 157 163 165 162 156 157 153 152 143 135 136 146 156 143 122 109 100 91 82 74 65 60 56
198 190 191 191 192 191 184 177 181 173 180 189 194 198 184 178 173 169 169 169 171 173 171 160 154 146 141 148 162 159 184 180 158 146 122 109 97 85 79 72 69 65 62
199 193 193 192 189 189 181 176 178 181 171 173 190 194 190 186 180 176 174 173 170 167 159 152 150 156 167 165 175 181 168 151 138 126 118 105 96 95 88 88 82 89 90
205 197 195 197 194 191 187 186 182 182 181 195 186 188 189 195 190 186 180 177 174 169 165 152 140 157 165 170 169 159 152 140 136 123 114 108 103 100 99 103 102 98 94
209 204 198 200 198 196 196 194 193 190 189 199 194 189 189 192 193 189 187 184 178 170 166 161 155 159 179 154 154 149 147 147 134 128 126 119 116 113 108 110 105 98 89
209 204 203 204 203 203 204 203 199 197 202 208 199 192 192 189 193 198 195 197 189 183 176 177 179 165 171 167 162 159 158 154 148 151 146 139 129 117 119 113 103 96 86
213 208 206 207 207 208 209 209 206 199 208 210 206 201 196 195 198 200 200 195 194 193 189 186 182 177 187 185 180 175 173 169 168 155 149 142 134 127 125 114 104 89 81
214 212 208 209 210 210 211 211 208 205 210 213 211 209 208 209 207 205 203 198 195 197 197 192 194 198 206 196 192 187 178 176 168 159 154 148 139 135 126 114 97 85 68
218 215 210 211 212 212 212 212 209 210 211 215 214 212 210 211 211 208 205 202 200 199 202 204 201 208 205 199 195 188 186 178 169 160 155 151 144 138 126 115 95 77 65
218 216 214 213 214 215 214 215 214 214 216 215 213 212 213 213 212 207 207 205 205 203 204 204 202 205 203 198 189 181 179 170 162 157 158 156 150 145 130 114 100 87 79
217 217 216 215 216 216 217 218 220 221 217 214 213 216 217 215 211 209 209 209 208 205 206 203 202 198 201 198 191 188 174 167 164 160 160 158 155 144 131 127 114 105 84
217 217 217 217 217 216 216 217 218 216 214 215 215 217 220 216 213 211 210 210 209 206 206 204 201 194 193 194 191 182 172 170 173 170 162 160 159 150 141 137 133 113 73
218 219 219 218 217 216 213 211 211 213 214 216 216 218 219 218 214 212 209 207 206 207 207 203 196 192 191 190 184 180 174 175 179 174 166 161 161 157 150 146 149 119 60
Wind_Speed_850mb
11 12 13 12 6 6 6 6 5 5 6 7 8 4 9 19 11 9 15 16 20 23 36 31 26 45 40 30 30 31 45 28 14 23 29 24 23 21 19 15 13 12 12
13 16 16 15 10 8 5 5 3 5 8 9 8 8 10 21 17 22 20 31 38 40 33 36 47 47 36 20 17 21 25 23 11 12 26 26 19 19 16 14 14 14 14
15 19 20 17 13 10 6 5 3 3 5 9 10 14 30 26 19 21 25 33 29 28 39 39 38 33 33 24 24 30 23 12 9 7 14 22 18 16 11 11 12 12 10
17 23 23 18 15 6 6 8 9 11 13 19 23 30 31 24 20 26 30 31 32 34 35 26 29 27 21 27 33 26 17 8 8 7 11 16 15 11 9 7 7 10 14
22 27 24 17 8 6 11 10 15 22 29 29 32 31 26 20 22 27 33 36 47 39 25 26 23 28 19 23 19 21 17 9 19 11 13 17 16 10 7 2 1 6 10
28 31 25 19 17 17 18 18 27 35 36 35 34 28 23 26 28 29 29 36 44 36 31 31 23 20 15 19 10 16 17 19 16 12 13 13 13 10 7 3 3 5 9
35 36 30 27 22 23 23 31 26 31 32 31 29 22 24 22 28 24 27 32 34 30 27 30 28 21 22 18 13 24 26 19 12 8 6 11 9 7 2 1 3 4 7
40 41 36 36 26 28 30 37 28 29 28 25 19 19 19 23 22 26 23 29 32 28 24 27 29 26 19 17 21 27 22 19 15 8 8 9 8 5 2 3 3 4 7
47 46 43 39 33 32 37 34 29 28 25 25 20 20 26 28 29 27 32 33 32 33 33 30 32 25 26 26 24 21 20 13 10 9 6 5 6 6 5 5 4 5 5
54 49 48 45 38 40 38 34 25 27 31 30 30 32 33 32 34 29 28 33 39 44 41 40 35 36 34 28 18 15 13 12 10 7 6 6 7 5 5 5 6 8 11
58 56 52 50 47 41 40 42 38 37 42 42 41 41 37 33 37 31 29 32 40 45 46 44 40 31 27 23 19 14 9 10 9 8 6 5 5 5 7 8 9 10 11
65 63 58 55 53 49 45 48 43 44 40 41 39 41 41 39 35 34 32 33 36 38 43 39 34 29 23 21 17 14 11 10 7 6 6 6 6 8 10 11 14 16 17
71 70 63 60 57 53 53 53 50 47 44 40 36 33 37 39 41 38 37 34 33 29 28 26 26 25 20 16 14 11 10 12 10 7 6 6 8 10 13 15 18 21 22
75 74 70 67 63 59 55 53 54 47 40 34 28 28 39 39 43 44 41 38 32 25 25 26 24 21 19 15 15 15 12 8 5 4 6 7 11 16 19 22 23 23 19
78 78 76 71 67 65 61 59 54 48 39 30 21 24 40 44 42 39 34 31 27 23 24 26 25 23 21 16 11 8 5 5 10 10 14 17 19 20 17 21 20 19 16
82 83 81 76 71 71 71 67 57 44 39 30 27 32 35 38 40 37 33 29 26 23 23 27 25 18 12 6 9 12 16 15 15 17 17 18 16 15 16 18 21 24 28
82 87 85 80 77 78 77 74 70 58 45 38 36 38 39 38 39 39 36 34 32 34 32 24 13 13 12 10 14 16 15 19 19 19 15 13 12 15 20 26 31 30 32
79 83 89 86 82 80 77 74 67 57 54 48 48 48 46 42 40 40 40 40 41 45 32 22 13 10 11 11 15 15 17 18 19 14 11 12 16 20 25 28 32 29 29
79 83 88 87 84 79 77 73 67 57 51 49 58 56 51 46 43 42 39 37 41 44 38 28 19 10 10 12 13 17 18 16 14 12 14 20 25 25 25 27 26 28 27
81 85 89 87 86 84 80 76 68 61 57 56 61 63 62 58 58 54 48 45 44 42 38 29 20 12 10 14 15 18 17 16 15 19 22 25 29 30 26 24 26 24 24
85 87 89 88 87 87 82 79 72 65 62 59 60 62 59 59 57 53 51 50 46 44 37 29 22 16 12 17 20 20 20 18 21 26 30 32 30 25 24 23 21 20 20
90 88 92 94 91 88 86 82 75 69 65 64 63 63 63 62 58 54 52 48 45 43 40 33 27 17 18 20 21 21 21 23 30 33 33 32 29 25 22 19 16 17 18
93 91 91 95 95 92 88 83 79 76 74 70 68 69 67 62 58 55 53 49 48 48 44 39 32 24 26 28 28 25 22 28 33 33 31 30 27 23 21 16 15 13 12
92 91 90 91 94 97 94 90 84 80 77 74 73 72 67 63 59 57 54 52 50 48 41 39 35 29 27 28 29 31 35 36 39 38 32 26 23 21 19 15 12 9 7
91 90 89 89 88 86 90 92 90 85 79 78 76 71 68 63 61 61 58 56 53 49 47 46 41 36 33 31 31 34 39 39 38 38 35 30 24 21 17 14 9 5 6
90 92 90 89 87 85 85 86 87 86 86 83 78 73 68 65 65 66 64 60 57 53 51 49 45 39 37 36 38 40 43 42 39 38 35 30 23 20 17 11 6 3 4
Wind_Direction_850mb
240 202 185 167 205 227 221 237 208 201 217 215 219 203 148 162 150 131 123 125 129 164 161 169 177 163 168 176 189 199 208 215 258 220 209 210 208 216 220 222 229 263 271
228 188 185 175 187 226 209 252 281 211 209 225 213 197 175 149 141 140 113 129 141 145 162 151 156 169 171 172 194 188 187 209 238 214 199 199 195 206 222 237 245 263 267
215 184 186 179 199 210 189 199 214 226 179 194 193 162 149 145 127 116 149 147 143 144 153 150 162 176 182 194 175 181 181 188 138 151 192 190 192 195 223 257 255 259 273
202 186 182 189 198 198 151 157 163 175 130 134 141 140 143 142 136 131 148 151 161 141 151 144 147 163 171 170 172 175 185 156 161 135 161 165 168 194 226 245 269 284 291
191 190 179 192 166 153 160 139 132 142 128 125 127 129 130 135 158 142 143 154 162 157 160 158 151 147 146 170 176 195 191 198 161 137 143 142 139 136 145 129 244 299 308
187 191 183 168 168 155 152 151 130 136 136 132 128 130 137 128 124 146 144 148 164 175 177 173 165 179 195 179 183 151 136 140 138 118 125 143 130 127 122 99 10 347 322
188 189 185 174 173 161 161 152 148 144 144 148 150 143 139 139 136 142 154 161 171 177 191 200 198 185 182 175 172 153 142 144 138 124 140 140 136 123 127 102 279 296 294
192 189 184 175 181 170 164 166 163 159 159 158 156 151 150 155 154 159 160 164 173 173 170 168 179 173 174 174 162 154 151 160 151 134 84 64 58 60 54 7 356 327 322
196 192 178 172 180 176 168 168 173 171 167 159 164 166 160 152 151 142 164 151 160 168 173 168 163 155 150 147 156 161 149 140 131 120 111 96 84 75 55 32 34 15 351
197 192 174 175 173 175 170 169 170 171 171 159 150 148 152 134 131 148 162 157 148 148 148 145 145 147 143 138 138 133 141 147 136 116 125 127 109 84 39 22 9 8 4
195 191 179 179 179 176 170 174 165 161 161 156 150 140 138 131 137 141 147 154 155 149 146 144 142 139 138 139 144 142 138 132 140 137 128 94 59 37 36 35 30 26 32
194 192 183 183 180 177 171 168 177 176 171 163 159 152 148 142 142 144 147 153 149 150 146 145 144 144 148 148 148 144 145 141 128 110 96 94 78 63 53 49 50 45 40
195 191 185 186 186 186 182 181 174 171 172 165 161 160 158 156 150 150 148 145 141 149 146 149 151 151 155 154 151 151 140 119 114 125 125 96 78 73 68 65 64 63 58
197 190 188 189 189 187 183 185 179 173 175 178 186 175 171 171 164 156 156 157 157 163 165 162 156 157 153 152 143 135 136 146 156 143 122 109 100 91 82 74 65 60 56
198 190 191 191 192 191 184 177 181 173 180 189 194 198 184 178 173 169 169 169 171 173 171 160 154 146 141 148 162 159 184 180 158 146 122 109 97 85 79 72 69 65 62
199 193 193 192 189 189 181 176 178 181 171 173 190 194 190 186 180 176 174 173 170 167 159 152 150 156 167 165 175 181 168 151 138 126 118 105 96 95 88 88 82 89 90
205 197 195 197 194 191 187 186 182 182 181 195 186 188 189 195 190 186 180 177 174 169 165 152 140 157 165 170 169 159 152 140 136 123 114 108 103 100 99 103 102 98 94
209 204 198 200 198 196 196 194 193 190 189 199 194 189 189 192 193 189 187 184 178 170 166 161 155 159 179 154 154 149 147 147 134 128 126 119 116 113 108 110 105 98 89
209 204 203 204 203 203 204 203 199 197 202 208 199 192 192 189 193 198 195 197 189 183 176 177 179 165 171 167 162 159 158 154 148 151 146 139 129 117 119 113 103 96 86
213 208 206 207 207 208 209 209 206 199 208 210 206 201 196 195 198 200 200 195 194 193 189 186 182 177 187 185 180 175 173 169 168 155 149 142 134 127 125 114 104 89 81
214 212 208 209 210 210 211 211 208 205 210 213 211 209 208 209 207 205 203 198 195 197 197 192 194 198 206 196 192 187 178 176 168 159 154 148 139 135 126 114 97 85 68
218 215 210 211 212 212 212 212 209 210 211 215 214 212 210 211 211 208 205 202 200 199 202 204 201 208 205 199 195 188 186 178 169 160 155 151 144 138 126 115 95 77 65
218 216 214 213 214 215 214 215 214 214 216 215 213 212 213 213 212 207 207 205 205 203 204 204 202 205 203 198 189 181 179 170 162 157 158 156 150 145 130 114 100 87 79
217 217 216 215 216 216 217 218 220 221 217 214 213 216 217 215 211 209 209 209 208 205 206 203 202 198 201 198 191 188 174 167 164 160 160 158 155 144 131 127 114 105 84
217 217 217 217 217 216 216 217 218 216 214 215 215 217 220 216 213 211 210 210 209 206 206 204 201 194 193 194 191 182 172 170 173 170 162 160 159 150 141 137 133 113 73
218 219 219 218 217 216 213 211 211 213 214 216 216 218 219 218 214 212 209 207 206 207 207 203 196 192 191 190 184 180 174 175 179 174 166 161 161 157 150 146 149 119 60